Starlink 34549

operational
NORAD ID: 65017 Int'l Des: 2025-161 Owner: SPXS Country: US Constellation: starlink
LEOCIRCULAR

关于 Starlink 34549

正在加载描述...

实时位置

正在加载3D地球...

即将过境

高度历史

Altitude vs Time

uPlot chart will show altitude changes over time

两行轨道根数

1 65017U 25161C 26095.46244667 .00025750 00000-0 87803-3 0 9993
2 65017 53.1599 169.5058 0001935 79.4391 280.6828 15.30218066 39545
Epoch: Apr 5, 2026 • Age: 9 hours

当前状态

高度 482.2 km
速度 7.62 km/s
星下点 -22.31°S, 126.14°W
发射日期 Jul 30, 2025
运行时间 0.6 years
类型 internet

技术详情

分类 Payload
质量 575.00 kg
干质量 530.00 kg
总质量 575.00 kg
长度 0.30 m
直径 4.10 m
跨度 29.00 m
形状 Box + pan
制造商 SPXS
平台类型 Starlink V2MO
阶段状态 In Orbit
所有者/国家 SPXS/US

大型星座

Loading constellations...